Location: Plymouth
(43.7570°N, 71.6890°W)
Time: 00:58:01
(UTC-05:00)

Daily predictions for brighter satellites

Satellite Brightness Start Highest point End
(mag) Time Altitude Azimuth Time Altitude Azimuth Time Altitude Azimuth
NOSS 3-1 (C) 4.4 03:20:57 59° NE 03:20:57 59° NE 03:29:11 10° SE
SL-16 R/B 4.2 03:38:09 20° NNE 03:38:09 20° NNE 03:39:47 10° NNE
USA 229 4.5 03:47:04 43° S 03:47:04 43° S 03:51:49 10° SSE
NOSS 3-1 (A) 4.3 03:45:53 50° N 03:47:43 63° NE 03:56:01 10° SE
Cosmos 2233 Rocket 4.4 03:48:44 41° NNE 03:50:38 59° ENE 03:56:40 10° SSE
Cosmos 2369 Rocket 3.4 03:51:42 33° NNE 03:52:58 37° ENE 03:58:08 10° SE
CZ-4B R/B 3.7 03:51:07 10° NNE 03:56:44 59° E 03:58:56 36° SSE
Cosmos 968 Rocket 3.9 04:04:08 60° ESE 04:04:08 60° ESE 04:08:44 10° SSE
Lacrosse 5 rocket 3.5 04:07:16 23° NNE 04:07:16 23° NNE 04:09:11 10° NE
Cosmos 1943 Rocket 3.5 04:12:50 20° N 04:16:06 37° NE 04:21:19 10° ESE
Cosmos 405 Rocket 4.3 04:18:11 33° ENE 04:18:13 33° ENE 04:21:39 10° SE
Okean-O 4.5 04:17:16 10° NE 04:21:11 30° E 04:25:06 10° SSE
Cosmos 1782 3.9 04:28:28 38° SSE 04:28:28 38° SSE 04:31:00 10° SSE
COSMO-SKYMED 1 3.6 04:27:59 10° SE 04:32:05 43° ENE 04:35:21 15° N
Cosmos 1900 4.3 04:33:01 76° WNW 04:33:01 76° WNW 04:38:13 10° NNE
ATLAS 5 CENTAUR R/B 2.2 04:31:25 36° S 04:33:06 59° ESE 04:38:01 10° NE
PAYLOAD B 4.3 04:31:09 10° N 04:36:18 57° NW 04:36:18 57° NW
Cosmos 1943 3.5 04:33:52 10° SSW 04:39:29 65° ESE 04:45:07 10° NNE
Cosmos 2237 Rocket 4.4 04:43:11 10° NNW 04:43:11 10° NNW 04:43:17 10° N
GEOS 3 Rocket 4.3 04:35:40 10° NNE 04:40:12 40° NNW 04:40:12 40° NNW
EO 1 Del DPAF 3.9 04:38:26 10° SSE 04:42:10 53° ENE 04:43:50 29° N
Okean 1-7 2.9 04:46:21 43° N 04:47:45 88° W 04:52:06 10° S
CZ-4B DEB 4.4 04:43:51 10° N 04:49:09 47° WNW 04:49:25 47° WNW
Cosmos 1447 Rocket 4.5 04:45:55 10° SSW 04:52:06 56° WNW 04:58:16 10° N
USA 267 4.5 04:47:04 10° ENE 04:52:25 28° N 04:55:14 21° NNW
IDEFIX/ARIANE 42P 3.5 04:47:51 10° NNE 04:52:52 48° E 04:57:52 10° S
Meteor 2-6 Rocket 4.2 04:47:35 10° NNW 04:53:30 81° W 04:59:27 10° S
CZ-2C R/B 3.9 04:51:08 10° NNE 04:55:57 39° E 05:00:38 10° SSE
IRS-1C Rocket 4.2 04:52:41 10° N 04:57:45 49° WNW 05:02:47 10° SW
Cosmos 2034 Rocket 4.4 04:52:58 10° N 04:59:11 64° E 05:05:18 10° SSE
Cosmos 2263 4.2 04:57:11 20° NNW 05:01:21 89° ENE 05:07:08 10° SSE
SKYMED 3 4.5 04:57:41 10° SSE 05:02:01 89° WSW 05:05:42 14° NNW
Genesis I 3.3 05:00:42 20° SSW 05:03:18 74° ESE 05:07:16 10° NE
Cosmos 1862 3.3 05:01:04 10° S 05:05:01 80° E 05:09:01 10° N
Cosmos 1733 Rocket 4.0 05:10:58 10° SSE 05:15:09 50° E 05:19:23 10° NNE
Cosmos 1606 4.3 05:18:20 19° SW 05:18:20 19° SW 05:19:49 10° SSW
Cosmos 1441 Rocket 3.2 05:16:45 33° NW 05:18:06 52° W 05:21:44 10° S
SL-16 R/B 3.9 05:20:04 15° NNW 05:20:04 15° NNW 05:22:31 10° N
SKYMED 2 3.6 05:15:49 10° S 05:20:04 57° W 05:23:56 13° NNW
Cosmos 1603 4.3 05:21:24 23° W 05:23:55 33° NW 05:29:04 10° N
ATLAS 2AS CENTAUR R/B 3.6 05:17:19 10° NNW 05:25:10 52° NE 05:32:27 10° ESE
Abrixas rocket 2.0 05:24:20 42° WNW 05:25:18 86° SSW 05:28:30 10° ESE
Cosmos 1464 Rocket 4.0 05:19:25 10° NNW 05:25:36 61° W 05:31:50 10° S
SL-8 R/B 3.9 05:24:22 28° W 05:26:44 56° NNW 05:31:26 10° ENE
Meteor 1-27 Rocket 3.7 05:24:41 10° NNW 05:30:27 63° W 05:36:03 10° S
Cosmos 1777 Rocket 4.2 05:27:24 15° NW 05:31:32 49° WSW 05:36:31 10° S
Gbstr 26 Del rocket 3.9 05:29:51 20° NW 05:32:14 35° NNE 05:35:49 10° E
CZ-4B R/B 4.3 05:32:32 10° N 05:36:50 23° WNW 05:40:47 11° WSW
Cosmos 2369 Rocket 2.8 05:33:34 18° NW 05:36:55 34° WSW 05:41:54 10° SSW
Cosmos 1818 3.7 05:35:54 11° NNW 05:41:16 79° NE 05:46:42 10° SE
CZ-3B R/B 1.9 05:41:43 39° WNW 05:41:57 43° NW 05:43:35 10° NE
Lacrosse 4 Rocket 1.4 05:38:57 10° SW 05:43:17 73° WNW 05:47:34 10° NNE
Cosmos 371 Rocket 4.0 05:40:05 10° S 05:44:49 58° ESE 05:49:34 10° NNE
Lacrosse 5 rocket 3.3 05:42:58 15° NW 05:44:52 19° NNW 05:48:10 10° NNE
Tsikada Rocket 4.0 05:38:51 10° S 05:45:08 83° W 05:51:22 10° N
CZ-4 R/B 3.5 05:43:51 10° NNE 05:47:24 31° E 05:51:00 10° SSE
MSX 3.8 05:42:53 10° NNE 05:48:43 88° WNW 05:54:28 10° SSW
PAYLOAD A 4.3 05:44:52 10° N 05:49:59 51° WNW 05:55:11 10° SW
Ariane Rocket 4.1 05:46:22 10° NNE 05:51:16 49° E 05:56:09 10° S
Okean 3 3.7 05:47:09 10° N 05:51:22 71° E 05:55:36 10° SSE
Cosmos 405 Rocket 4.2 05:53:26 16° WNW 05:53:58 16° W 05:56:20 10° SW
Aureole 3 3.2 05:52:17 10° SW 05:55:02 34° WNW 05:57:53 10° N
Okean-O 3.5 05:53:50 10° N 05:57:35 28° WNW 06:01:20 10° SW
Cosmos 1867 4.3 05:54:19 10° SSW 05:59:38 60° ESE 06:05:01 10° NE
PSLV R/B 4.3 05:57:13 12° WSW 05:59:44 33° SSW 06:02:38 10° SE
Cosmos 1943 Rocket 2.8 05:54:41 10° NW 05:59:48 36° WSW 06:04:53 10° S
NOSS 2-1 (C) 4.2 05:58:57 10° SSW 06:02:32 52° ESE 06:06:30 10° NE
NOSS 2-1 (D) 4.1 05:59:09 10° SSW 06:02:44 54° ESE 06:06:44 10° NE
COSMO-SKYMED 1 4.0 06:05:29 10° SW 06:08:27 18° W 06:11:26 10° NW
Cosmos 1656 Rocket 3.6 06:03:03 10° NNW 06:08:28 70° WSW 06:13:50 10° SSE
Cosmos 332 Rocket 3.7 06:06:26 10° SSW 06:11:11 69° WNW 06:16:01 10° NNE
COSMOS 2406 3.9 06:08:32 10° S 06:14:12 61° ESE 06:19:54 10° NNE
CSL-04 Rocket 3.8 06:08:51 10° NNE 06:14:23 88° E 06:19:57 10° SSW
Cosmos 1937 Rocket 4.0 06:11:13 10° NNW 06:16:20 63° ENE 06:21:25 10° SSE
SJ-7 4.3 06:13:17 10° N 06:17:17 72° WNW 06:21:15 10° SSW
Cosmos 1674 Rocket 3.9 06:13:29 10° NNW 06:17:34 41° W 06:21:37 10° SSW
ATLAS 5 CENTAUR R/B 3.0 06:14:17 10° W 06:18:12 25° NW 06:22:27 10° NNE
Thor Agena Rocket 3.9 06:16:33 10° S 06:21:21 43° W 06:26:10 10° NNW
SJ-12 4.4 06:18:19 10° N 06:22:07 37° WNW 06:25:53 10° SW
Cosmos 1943 4.3 06:19:37 10° W 06:24:02 23° NW 06:28:27 10° N
IRAS Rocket 4.2 06:20:22 10° NNE 06:25:52 74° WNW 06:31:20 10° SSW
Cosmos 2279 Rocket 4.4 06:20:24 10° N 06:26:41 73° E 06:32:55 10° SSE
